User: anonymous   Login
Location: Unspecified
(0.0000°N, 0.0000°E)
Time: 05:13:22
(UTC+00:00)
Language:

OBJECT-A - Orbit

View from above orbital plane
View from above orbital plane
View from above satellite
View from above satellite

Ground track
Ground track

The orbit data is extracted from the following two-line orbital elements,

1 40381U 15004A   17118.89713524 0.00000000  00000-0  00000-0 0    06
2 40381  97.3525 191.1955 0002000 334.6009  25.3990 15.27651029    03
Epoch (UTC): 28 April 2017 21:31:52
Eccentricity: 0.0002000
inclination: 97.3525°
perigee height: 481 km
apogee height: 484 km
right ascension of ascending node: 191.1955°
argument of perigee: 334.6009°
revolutions per day: 15.27651029
mean anomaly at epoch: 25.3990°
orbit number at epoch: 0

The dashed part of the orbit path shows where the satellite is in the earth's shadow,  

DLR